TimePDT,TemperatureF,Dew PointF,Humidity,Sea Level PressureIn,VisibilityMPH,Wind Direction,Wind SpeedMPH,Gust SpeedMPH,PrecipitationIn,Events,Conditions,WindDirDegrees,DateUTC
12:53 AM,66.0,37.0,34,29.80,10.0,WSW,3.5,-,N/A,,Clear,240,2011-04-02 07:53:00
1:53 AM,64.0,37.0,37,29.79,10.0,WNW,4.6,-,N/A,,Clear,300,2011-04-02 08:53:00
2:53 AM,64.9,37.9,37,29.78,10.0,WNW,8.1,-,N/A,,Clear,290,2011-04-02 09:53:00
3:53 AM,62.1,41.0,46,29.78,10.0,West,8.1,-,N/A,,Clear,280,2011-04-02 10:53:00
4:53 AM,62.1,39.0,43,29.75,10.0,NW,5.8,-,N/A,,Clear,310,2011-04-02 11:53:00
5:53 AM,60.1,43.0,53,29.76,10.0,West,4.6,-,N/A,,Clear,260,2011-04-02 12:53:00
6:46 AM,62.6,42.8,48,29.85,10.0,NW,16.1,-,N/A,,Clear,320,2011-04-02 13:46:00
6:53 AM,62.1,42.1,48,29.79,10.0,NW,17.3,-,N/A,,Clear,320,2011-04-02 13:53:00
7:53 AM,61.0,43.0,52,29.81,10.0,NNW,3.5,-,N/A,,Clear,330,2011-04-02 14:53:00
8:53 AM,69.1,41.0,36,29.80,10.0,Calm,Calm,-,N/A,,Clear,0,2011-04-02 15:53:00
9:53 AM,71.1,39.9,32,29.81,10.0,WSW,9.2,-,N/A,,Clear,250,2011-04-02 16:53:00
10:53 AM,75.0,39.9,28,29.80,10.0,SW,18.4,-,N/A,,Clear,220,2011-04-02 17:53:00
11:53 AM,75.9,42.1,30,29.79,10.0,SSW,17.3,21.9,N/A,,Clear,210,2011-04-02 18:53:00
12:53 PM,71.1,42.1,35,29.79,10.0,Variable,5.8,-,N/A,,Clear,0,2011-04-02 19:53:00
1:53 PM,71.1,41.0,34,29.78,10.0,Variable,3.5,-,N/A,,Clear,0,2011-04-02 20:53:00
2:53 PM,72.0,45.0,38,29.74,10.0,SW,32.2,40.3,N/A,,Clear,220,2011-04-02 21:53:00
3:53 PM,72.0,41.0,33,29.74,10.0,SW,31.1,39.1,N/A,,Clear,230,2011-04-02 22:53:00
4:53 PM,71.1,39.9,32,29.76,10.0,SW,31.1,39.1,N/A,,Clear,230,2011-04-02 23:53:00
5:53 PM,68.0,41.0,37,29.77,10.0,SSW,27.6,35.7,N/A,,Clear,210,2011-04-03 00:53:00
6:53 PM,64.9,39.0,39,29.78,10.0,SW,26.5,32.2,N/A,,Clear,230,2011-04-03 01:53:00
7:53 PM,59.0,46.0,62,29.81,10.0,SW,21.9,29.9,N/A,,Clear,230,2011-04-03 02:53:00
8:53 PM,59.0,43.0,55,29.84,10.0,WSW,19.6,23.0,N/A,,Mostly Cloudy,240,2011-04-03 03:53:00
9:53 PM,55.0,45.0,69,29.86,10.0,SW,12.7,-,N/A,,Partly Cloudy,220,2011-04-03 04:53:00
10:53 PM,55.0,45.0,69,29.85,10.0,SW,17.3,-,N/A,,Clear,220,2011-04-03 05:53:00
11:53 PM,53.1,46.0,77,29.87,10.0,SW,15.0,21.9,N/A,,Mostly Cloudy,230,2011-04-03 06:53:00